PKTCX WARC-WARR

Flight info

Callsign PKTCX
Flight time 0h 55m
Altitude 5500
Route BA LASEM FOLLOW COASTLINE TO KJUDN
Aircraft TBM8/L-SDFGRW/EB1

Departure

Time 2026-05-09 11:54
Airport Ngloram Airport (WARC)

Arrival

Time 2026-05-09 12:50
Airport Juanda International Airport (WARR)
Time Latitude Longitude Altitude Speed Heading
2026-05-09 11:38 -7.19341 111.54709 120 ft 0 kts 355°
2026-05-09 11:50 -7.19334 111.54713 116 ft 7 kts 68°
2026-05-09 11:50 -7.19351 111.54716 123 ft 1 kts 224°
2026-05-09 11:51 -7.19402 111.54689 126 ft 7 kts 175°
2026-05-09 11:51 -7.19442 111.54695 127 ft 8 kts 170°
2026-05-09 11:51 -7.19511 111.54722 126 ft 9 kts 92°
2026-05-09 11:51 -7.19504 111.54851 127 ft 24 kts 86°
2026-05-09 11:52 -7.19486 111.54983 127 ft 18 kts 79°
2026-05-09 11:52 -7.19470 111.55070 125 ft 13 kts 77°
2026-05-09 11:52 -7.19442 111.55144 125 ft 5 kts 53°
2026-05-09 11:52 -7.19440 111.55149 125 ft 0 kts 78°
2026-05-09 11:53 -7.19437 111.55168 125 ft 9 kts 89°
2026-05-09 11:53 -7.19452 111.55186 124 ft 2 kts 176°
2026-05-09 11:53 -7.19459 111.55185 122 ft 3 kts 205°
2026-05-09 11:53 -7.19466 111.55177 126 ft 0 kts 249°
2026-05-09 11:54 -7.19469 111.55133 124 ft 27 kts 265°
2026-05-09 11:54 -7.19524 111.54724 128 ft 87 kts 262°
2026-05-09 11:54 -7.19670 111.53833 492 ft 102 kts 260°
2026-05-09 11:54 -7.19767 111.53360 748 ft 103 kts 256°
2026-05-09 11:55 -7.19992 111.52668 1052 ft 111 kts 247°
2026-05-09 11:56 -7.18793 111.49206 2624 ft 157 kts 336°
2026-05-09 11:56 -7.17755 111.48707 2834 ft 169 kts 335°
2026-05-09 11:56 -7.16651 111.48186 2930 ft 181 kts 338°
2026-05-09 11:57 -7.15474 111.47724 3143 ft 180 kts 341°
2026-05-09 11:57 -7.14322 111.47326 3481 ft 173 kts 343°
2026-05-09 11:57 -7.13178 111.46968 3822 ft 170 kts 343°
2026-05-09 11:57 -7.12038 111.46593 4000 ft 175 kts 342°
2026-05-09 11:58 -7.10873 111.46219 4181 ft 179 kts 341°
2026-05-09 11:58 -7.09662 111.45819 4244 ft 186 kts 343°
2026-05-09 11:58 -7.08402 111.45528 4521 ft 181 kts 349°
2026-05-09 11:58 -7.07167 111.45297 4682 ft 185 kts 349°
2026-05-09 11:59 -7.05870 111.45031 4692 ft 197 kts 349°
2026-05-09 11:59 -7.04497 111.44850 4694 ft 200 kts 354°
2026-05-09 11:59 -7.03101 111.44707 4736 ft 205 kts 355°
2026-05-09 11:59 -7.01665 111.44811 4723 ft 209 kts 11°
2026-05-09 12:00 -7.00235 111.45126 4726 ft 204 kts 14°
2026-05-09 12:00 -6.98869 111.45441 4711 ft 200 kts 13°
2026-05-09 12:00 -6.97569 111.45817 4699 ft 195 kts 23°
2026-05-09 12:00 -6.96330 111.46381 4691 ft 194 kts 27°
2026-05-09 12:01 -6.95124 111.46974 4695 ft 191 kts 28°
2026-05-09 12:01 -6.93924 111.47618 4708 ft 195 kts 32°
2026-05-09 12:01 -6.92777 111.48297 4702 ft 194 kts 31°
2026-05-09 12:01 -6.91616 111.48990 4732 ft 194 kts 32°
2026-05-09 12:02 -6.90464 111.49648 4823 ft 188 kts 31°
2026-05-09 12:02 -6.89329 111.50293 4974 ft 185 kts 31°
2026-05-09 12:02 -6.88238 111.50917 5187 ft 174 kts 31°
2026-05-09 12:02 -6.87194 111.51512 5417 ft 172 kts 31°
2026-05-09 12:03 -6.86134 111.52117 5511 ft 180 kts 31°
2026-05-09 12:03 -6.85069 111.52745 5503 ft 174 kts 32°
2026-05-09 12:03 -6.84055 111.53330 5535 ft 165 kts 31°
2026-05-09 12:03 -6.83031 111.53916 5518 ft 172 kts 32°
2026-05-09 12:04 -6.81994 111.54511 5507 ft 168 kts 32°
2026-05-09 12:04 -6.80999 111.55081 5503 ft 163 kts 32°
2026-05-09 12:04 -6.80023 111.55644 5512 ft 159 kts 35°
2026-05-09 12:04 -6.79404 111.56516 5506 ft 154 kts 80°
2026-05-09 12:05 -6.79460 111.57578 5528 ft 156 kts 99°
2026-05-09 12:05 -6.79605 111.58678 5525 ft 160 kts 97°
2026-05-09 12:05 -6.79760 111.59802 5510 ft 162 kts 99°
2026-05-09 12:05 -6.79909 111.60903 5489 ft 160 kts 98°
2026-05-09 12:06 -6.80031 111.61989 5507 ft 154 kts 97°
2026-05-09 12:06 -6.80176 111.63054 5499 ft 154 kts 99°
2026-05-09 12:06 -6.80324 111.64111 5492 ft 151 kts 98°
2026-05-09 12:06 -6.80451 111.65157 5499 ft 153 kts 98°
2026-05-09 12:07 -6.80588 111.66213 5489 ft 144 kts 99°
2026-05-09 12:07 -6.80712 111.67132 5489 ft 125 kts 99°
2026-05-09 12:07 -6.80814 111.67973 5492 ft 118 kts 98°
2026-05-09 12:07 -6.80907 111.68774 5494 ft 112 kts 98°
2026-05-09 12:08 -6.80996 111.69542 5492 ft 108 kts 98°
2026-05-09 12:08 -6.81079 111.70287 5498 ft 107 kts 98°
2026-05-09 12:08 -6.81167 111.71030 5490 ft 107 kts 98°
2026-05-09 12:08 -6.81255 111.71768 5489 ft 105 kts 99°
2026-05-09 12:09 -6.81345 111.72499 5495 ft 106 kts 97°
2026-05-09 12:09 -6.81434 111.73242 5504 ft 109 kts 99°
2026-05-09 12:09 -6.81531 111.74010 5509 ft 112 kts 98°
2026-05-09 12:10 -6.81836 111.76377 5512 ft 115 kts 98°
2026-05-09 12:10 -6.81937 111.77173 5511 ft 118 kts 99°
2026-05-09 12:10 -6.82045 111.78004 5509 ft 119 kts 99°
2026-05-09 12:11 -6.82148 111.78819 5513 ft 120 kts 98°
2026-05-09 12:11 -6.82248 111.79650 5508 ft 120 kts 98°
2026-05-09 12:11 -6.82346 111.80476 5515 ft 119 kts 99°
2026-05-09 12:11 -6.82445 111.81303 5506 ft 118 kts 98°
2026-05-09 12:12 -6.82545 111.82120 5508 ft 118 kts 98°
2026-05-09 12:12 -6.82643 111.82936 5506 ft 117 kts 98°
2026-05-09 12:12 -6.82741 111.83749 5503 ft 117 kts 98°
2026-05-09 12:12 -6.82839 111.84555 5503 ft 116 kts 98°
2026-05-09 12:13 -6.82945 111.85366 5505 ft 117 kts 98°
2026-05-09 12:13 -6.83051 111.86180 5504 ft 117 kts 99°
2026-05-09 12:13 -6.83152 111.86983 5501 ft 116 kts 98°
2026-05-09 12:13 -6.83253 111.87791 5505 ft 117 kts 99°
2026-05-09 12:14 -6.83355 111.88605 5503 ft 117 kts 98°
2026-05-09 12:14 -6.83460 111.89426 5508 ft 119 kts 99°
2026-05-09 12:14 -6.83564 111.90244 5503 ft 117 kts 98°
2026-05-09 12:14 -6.83665 111.91056 5505 ft 118 kts 98°
2026-05-09 12:15 -6.83767 111.91912 5517 ft 127 kts 97°
2026-05-09 12:15 -6.83886 111.92824 5518 ft 135 kts 98°
2026-05-09 12:15 -6.84012 111.93769 5520 ft 137 kts 98°
2026-05-09 12:15 -6.84139 111.94722 5519 ft 138 kts 98°
2026-05-09 12:16 -6.84267 111.95680 5516 ft 139 kts 98°
2026-05-09 12:16 -6.84395 111.96642 5518 ft 139 kts 98°
2026-05-09 12:16 -6.84523 111.97605 5513 ft 138 kts 98°
2026-05-09 12:16 -6.84648 111.98565 5518 ft 139 kts 98°
2026-05-09 12:17 -6.84775 111.99529 5517 ft 139 kts 98°
2026-05-09 12:17 -6.84903 112.00496 5515 ft 140 kts 98°
2026-05-09 12:17 -6.85030 112.01467 5518 ft 141 kts 98°
2026-05-09 12:17 -6.85158 112.02445 5513 ft 141 kts 98°
2026-05-09 12:18 -6.85286 112.03420 5516 ft 140 kts 98°
2026-05-09 12:18 -6.85414 112.04391 5513 ft 140 kts 98°
2026-05-09 12:18 -6.85540 112.05310 5507 ft 124 kts 99°
2026-05-09 12:18 -6.85644 112.06129 5500 ft 113 kts 98°
2026-05-09 12:19 -6.85732 112.06878 5500 ft 106 kts 98°
2026-05-09 12:19 -6.85820 112.07604 5501 ft 103 kts 99°
2026-05-09 12:19 -6.85905 112.08311 5499 ft 101 kts 98°
2026-05-09 12:19 -6.85992 112.09006 5501 ft 99 kts 99°
2026-05-09 12:20 -6.86082 112.09694 5500 ft 99 kts 98°
2026-05-09 12:20 -6.86171 112.10376 5502 ft 98 kts 98°
2026-05-09 12:20 -6.86268 112.11053 5500 ft 98 kts 107°
2026-05-09 12:20 -6.86625 112.11627 5507 ft 97 kts 120°
2026-05-09 12:21 -6.86947 112.12226 5507 ft 98 kts 119°
2026-05-09 12:21 -6.87285 112.12819 5512 ft 97 kts 120°
2026-05-09 12:21 -6.87627 112.13405 5512 ft 97 kts 120°
2026-05-09 12:21 -6.87966 112.13995 5514 ft 99 kts 119°
2026-05-09 12:22 -6.88328 112.14629 5525 ft 110 kts 120°
2026-05-09 12:22 -6.88735 112.15313 5520 ft 118 kts 121°
2026-05-09 12:22 -6.89159 112.16033 5522 ft 121 kts 121°
2026-05-09 12:22 -6.89620 112.16845 5532 ft 152 kts 118°
2026-05-09 12:23 -6.90208 112.17874 5526 ft 185 kts 120°
2026-05-09 12:23 -6.90914 112.19050 5522 ft 206 kts 121°
2026-05-09 12:23 -6.91667 112.20326 5528 ft 217 kts 120°
2026-05-09 12:23 -6.92448 112.21657 5528 ft 224 kts 120°
2026-05-09 12:24 -6.93245 112.23025 5528 ft 228 kts 120°
2026-05-09 12:24 -6.94052 112.24409 5524 ft 230 kts 121°
2026-05-09 12:24 -6.94868 112.25793 5523 ft 230 kts 120°
2026-05-09 12:24 -6.95680 112.27183 5522 ft 230 kts 120°
2026-05-09 12:25 -6.96493 112.28574 5526 ft 231 kts 120°
2026-05-09 12:25 -6.97309 112.29969 5525 ft 231 kts 120°
2026-05-09 12:25 -6.98125 112.31362 5521 ft 231 kts 120°
2026-05-09 12:25 -6.98942 112.32760 5520 ft 232 kts 120°
2026-05-09 12:26 -6.99761 112.34163 5523 ft 233 kts 120°
2026-05-09 12:26 -7.00580 112.35568 5522 ft 233 kts 121°
2026-05-09 12:26 -7.01401 112.36968 5525 ft 232 kts 120°
2026-05-09 12:26 -7.02220 112.38369 5520 ft 232 kts 120°
2026-05-09 12:27 -7.03037 112.39765 5512 ft 232 kts 120°
2026-05-09 12:27 -7.03854 112.41164 5506 ft 232 kts 120°
2026-05-09 12:27 -7.04670 112.42561 5506 ft 231 kts 120°
2026-05-09 12:27 -7.05482 112.43952 5503 ft 228 kts 121°
2026-05-09 12:28 -7.06274 112.45286 5499 ft 217 kts 121°
2026-05-09 12:28 -7.07025 112.46575 5495 ft 211 kts 120°
2026-05-09 12:28 -7.07756 112.47844 5495 ft 209 kts 120°
2026-05-09 12:28 -7.08486 112.49098 5491 ft 206 kts 120°
2026-05-09 12:29 -7.09211 112.50337 5492 ft 205 kts 120°
2026-05-09 12:29 -7.09926 112.51560 5489 ft 197 kts 121°
2026-05-09 12:29 -7.10603 112.52700 5489 ft 185 kts 120°
2026-05-09 12:29 -7.11229 112.53782 5489 ft 179 kts 120°
2026-05-09 12:30 -7.11849 112.54855 5490 ft 176 kts 120°
2026-05-09 12:30 -7.12465 112.55910 5491 ft 174 kts 120°
2026-05-09 12:30 -7.13692 112.58001 5488 ft 172 kts 124°
2026-05-09 12:31 -7.14641 112.58690 5490 ft 173 kts 164°
2026-05-09 12:31 -7.17041 112.58956 5496 ft 174 kts 173°
2026-05-09 12:31 -7.18250 112.59071 5497 ft 175 kts 173°
2026-05-09 12:32 -7.19464 112.59179 5464 ft 177 kts 174°
2026-05-09 12:32 -7.20726 112.59293 5232 ft 186 kts 173°
2026-05-09 12:32 -7.22022 112.59423 4998 ft 188 kts 169°
2026-05-09 12:32 -7.23237 112.59905 4765 ft 189 kts 148°
2026-05-09 12:33 -7.24281 112.60707 4526 ft 189 kts 140°
2026-05-09 12:33 -7.25286 112.61558 4285 ft 189 kts 140°
2026-05-09 12:33 -7.26292 112.62407 4044 ft 189 kts 139°
2026-05-09 12:33 -7.27232 112.63191 3820 ft 143 kts 141°
2026-05-09 12:34 -7.27867 112.63712 3589 ft 105 kts 137°
2026-05-09 12:34 -7.28200 112.64319 3289 ft 96 kts 102°
2026-05-09 12:34 -7.28309 112.65017 3049 ft 113 kts 98°
2026-05-09 12:34 -7.28477 112.65846 2826 ft 127 kts 102°
2026-05-09 12:35 -7.28665 112.66734 2625 ft 134 kts 103°
2026-05-09 12:35 -7.28939 112.67783 2372 ft 180 kts 110°
2026-05-09 12:35 -7.29671 112.68930 2142 ft 205 kts 128°
2026-05-09 12:35 -7.30571 112.70041 1989 ft 201 kts 131°
2026-05-09 12:36 -7.31757 112.70715 1991 ft 199 kts 165°
2026-05-09 12:36 -7.33117 112.70922 1992 ft 197 kts 171°
2026-05-09 12:36 -7.34473 112.71101 1979 ft 194 kts 169°
2026-05-09 12:36 -7.35811 112.71086 1989 ft 194 kts 187°
2026-05-09 12:37 -7.37113 112.70727 1996 ft 195 kts 195°
2026-05-09 12:37 -7.38412 112.70305 2003 ft 197 kts 196°
2026-05-09 12:37 -7.39714 112.69874 2002 ft 197 kts 196°
2026-05-09 12:37 -7.41002 112.69454 1988 ft 192 kts 195°
2026-05-09 12:38 -7.42296 112.69298 1988 ft 190 kts 178°
2026-05-09 12:38 -7.43619 112.69280 2006 ft 187 kts 178°
2026-05-09 12:38 -7.44938 112.69277 1984 ft 191 kts 178°
2026-05-09 12:38 -7.46263 112.69265 1999 ft 190 kts 178°
2026-05-09 12:39 -7.47626 112.69260 1557 ft 204 kts 178°
2026-05-09 12:39 -7.49090 112.69265 1149 ft 209 kts 175°
2026-05-09 12:39 -7.50357 112.69798 1026 ft 196 kts 136°
2026-05-09 12:39 -7.50975 112.70962 1021 ft 189 kts 98°
2026-05-09 12:40 -7.50705 112.72227 1011 ft 187 kts 59°
2026-05-09 12:40 -7.49708 112.72983 1054 ft 172 kts 18°
2026-05-09 12:40 -7.48648 112.73389 1061 ft 156 kts 25°
2026-05-09 12:40 -7.47638 112.73725 1099 ft 150 kts 16°
2026-05-09 12:41 -7.46629 112.73976 1144 ft 149 kts 13°
2026-05-09 12:41 -7.45619 112.74171 1267 ft 148 kts 14°
2026-05-09 12:41 -7.44599 112.74412 1222 ft 149 kts 16°
2026-05-09 12:41 -7.43606 112.74652 1259 ft 145 kts 20°
2026-05-09 12:42 -7.42674 112.75044 1316 ft 145 kts 29°
2026-05-09 12:42 -7.42067 112.75354 1378 ft 145 kts 31°
2026-05-09 12:42 -7.41196 112.75870 1372 ft 149 kts 34°
2026-05-09 12:42 -7.40189 112.76126 1278 ft 162 kts 349°
2026-05-09 12:43 -7.39379 112.75337 1114 ft 168 kts 287°
2026-05-09 12:43 -7.39259 112.74188 1014 ft 169 kts 266°
2026-05-09 12:43 -7.39021 112.73094 875 ft 139 kts 310°
2026-05-09 12:43 -7.38323 112.72840 750 ft 96 kts 22°
2026-05-09 12:44 -7.37955 112.73276 662 ft 87 kts 84°
2026-05-09 12:44 -7.38184 112.73898 568 ft 100 kts 109°
2026-05-09 12:44 -7.38307 112.74555 661 ft 93 kts 86°
2026-05-09 12:44 -7.38102 112.75192 704 ft 99 kts 66°
2026-05-09 12:45 -7.37773 112.75845 618 ft 112 kts 63°
2026-05-09 12:45 -7.37659 112.76613 482 ft 110 kts 99°
2026-05-09 12:45 -7.37789 112.77363 560 ft 104 kts 97°
2026-05-09 12:45 -7.37781 112.78062 712 ft 99 kts 70°
2026-05-09 12:46 -7.37148 112.78288 631 ft 119 kts 335°
2026-05-09 12:46 -7.36871 112.77581 686 ft 105 kts 266°
2026-05-09 12:46 -7.36828 112.76869 861 ft 97 kts 266°
2026-05-09 12:46 -7.36824 112.76199 1014 ft 98 kts 276°
2026-05-09 12:47 -7.36730 112.75495 1094 ft 109 kts 271°
2026-05-09 12:47 -7.36598 112.74729 1194 ft 102 kts 283°
2026-05-09 12:47 -7.36495 112.74070 1382 ft 104 kts 274°
2026-05-09 12:47 -7.36475 112.73333 1574 ft 104 kts 261°
2026-05-09 12:48 -7.36885 112.72830 1620 ft 101 kts 175°
2026-05-09 12:48 -7.37231 112.73323 1496 ft 108 kts 84°
2026-05-09 12:48 -7.37239 112.74130 994 ft 127 kts 97°
2026-05-09 12:48 -7.37392 112.74916 654 ft 98 kts 98°
2026-05-09 12:49 -7.37512 112.75566 424 ft 94 kts 97°
2026-05-09 12:49 -7.37604 112.76221 364 ft 95 kts 95°
2026-05-09 12:49 -7.37704 112.76893 255 ft 101 kts 95°
2026-05-09 12:49 -7.37816 112.77599 90 ft 102 kts 100°
2026-05-09 12:50 -7.37919 112.78278 22 ft 95 kts 97°
2026-05-09 12:50 -7.38017 112.78892 4 ft 78 kts 96°
2026-05-09 12:50 -7.38048 112.79208 6 ft 20 kts 76°
2026-05-09 12:50 -7.38015 112.79318 4 ft 24 kts 70°
2026-05-09 12:51 -7.37955 112.79405 4 ft 9 kts 353°
2026-05-09 12:51 -7.37913 112.79325 4 ft 15 kts 278°
2026-05-09 12:51 -7.37901 112.79252 4 ft 7 kts 279°
2026-05-09 12:51 -7.37891 112.79178 4 ft 16 kts 276°
2026-05-09 12:52 -7.37831 112.79075 4 ft 16 kts 353°
2026-05-09 12:52 -7.37753 112.79084 4 ft 16 kts
2026-05-09 12:52 -7.37684 112.79028 4 ft 15 kts 276°
2026-05-09 12:52 -7.37639 112.78919 4 ft 13 kts 344°
2026-05-09 12:53 -7.37548 112.78927 4 ft 9 kts 340°
2026-05-09 12:53 -7.37546 112.78897 4 ft 1 kts 179°
2026-05-09 12:53 -7.37550 112.78897 4 ft 0 kts 181°
2026-05-09 12:54 -7.37571 112.78897 4 ft 12 kts 185°
2026-05-09 12:54 -7.37590 112.78853 4 ft 4 kts 235°
2026-05-09 12:54 -7.37596 112.78851 4 ft 0 kts 178°
2026-05-09 12:54 -7.37572 112.78850 4 ft 8 kts 174°
2026-05-09 12:55 -7.37546 112.78865 4 ft 0 kts 189°